| time (UTC) | temp C | wind direction | speed KPH | gust KPH | rain 1hr cm | rain 24hr cm | rain mn cm | humidity % | barometer mb |
| 20260505190731 | 27 | 185 | 16.1 | 27.4 | 0.00 | 0.00 | 0.00 | 69 | 1005.2 |
| 20260505185731 | 26 | 191 | 17.7 | 30.6 | 0.00 | 0.00 | 0.00 | 75 | 1005.4 |
| 20260505184732 | 26 | 191 | 17.7 | 30.6 | 0.00 | 0.00 | 0.00 | 75 | 1005.4 |
| 20260505181732 | 26 | 191 | 17.7 | 30.6 | 0.00 | 0.00 | 0.00 | 75 | 1005.4 |
| 20260505170732 | 26 | 191 | 17.7 | 30.6 | 0.00 | 0.00 | 0.00 | 75 | 1005.4 |
| 20260505161732 | 23 | 184 | 19.3 | 37.0 | 0.00 | 0.00 | 0.00 | 78 | 1005.4 |
| 20260505160732 | 23 | 184 | 19.3 | 37.0 | 0.00 | 0.00 | 0.00 | 78 | 1005.4 |
| 20260505151732 | 22 | 196 | 17.7 | 30.6 | 0.00 | 0.00 | 0.00 | 81 | 1005.3 |
| 20260505150731 | 22 | 196 | 17.7 | 30.6 | 0.00 | 0.00 | 0.00 | 81 | 1005.3 |
| 20260505124731 | 21 | 175 | 12.9 | 33.8 | 0.00 | 0.00 | 0.00 | 88 | 1004.1 |
| 20260505123731 | 21 | 175 | 12.9 | 33.8 | 0.00 | 0.00 | 0.00 | 88 | 1004.1 |
| 20260505122732 | 21 | 175 | 12.9 | 33.8 | 0.00 | 0.00 | 0.00 | 88 | 1004.1 |
| 20260505121733 | 21 | 175 | 12.9 | 33.8 | 0.00 | 0.00 | 0.00 | 88 | 1004.1 |
| 20260505120731 | 21 | 175 | 12.9 | 33.8 | 0.00 | 0.00 | 0.00 | 88 | 1004.1 |
| 20260505114732 | 21 | 165 | 16.1 | 33.8 | 0.00 | 0.00 | 0.00 | 88 | 1003.8 |
| 20260505110731 | 21 | 165 | 16.1 | 33.8 | 0.00 | 0.00 | 0.00 | 88 | 1003.8 |
| 20260505101732 | 21 | 185 | 12.9 | 33.8 | 0.00 | 0.00 | 0.00 | 87 | 1003.9 |
| 20260505100731 | 21 | 185 | 12.9 | 33.8 | 0.00 | 0.00 | 0.00 | 87 | 1003.9 |
| 20260505095732 | 21 | 195 | 12.9 | 27.4 | 0.00 | 0.00 | 0.00 | 87 | 1004.5 |
| 20260505094731 | 21 | 195 | 12.9 | 27.4 | 0.00 | 0.00 | 0.00 | 87 | 1004.5 |
| 20260505093731 | 21 | 195 | 12.9 | 27.4 | 0.00 | 0.00 | 0.00 | 87 | 1004.5 |
| 20260505092731 | 21 | 195 | 12.9 | 27.4 | 0.00 | 0.00 | 0.00 | 87 | 1004.5 |
| 20260505091731 | 21 | 195 | 12.9 | 27.4 | 0.00 | 0.00 | 0.00 | 87 | 1004.5 |
| 20260505090731 | 21 | 195 | 12.9 | 27.4 | 0.00 | 0.00 | 0.00 | 87 | 1004.5 |
| 20260505085731 | 20 | 199 | 16.1 | 37.0 | 0.00 | 0.00 | 0.00 | 87 | 1004.7 |
| 20260505083731 | 20 | 199 | 16.1 | 37.0 | 0.00 | 0.00 | 0.00 | 87 | 1004.7 |
| 20260505082731 | 20 | 199 | 16.1 | 37.0 | 0.00 | 0.00 | 0.00 | 87 | 1004.7 |
| 20260505081731 | 20 | 199 | 16.1 | 37.0 | 0.00 | 0.00 | 0.00 | 87 | 1004.7 |
| 20260505075731 | 21 | 197 | 17.7 | 33.8 | 0.00 | 0.00 | 0.00 | 85 | 1005.5 |
| 20260505073731 | 21 | 197 | 17.7 | 33.8 | 0.00 | 0.00 | 0.00 | 85 | 1005.5 |
| 20260505072731 | 21 | 197 | 17.7 | 33.8 | 0.00 | 0.00 | 0.00 | 85 | 1005.5 |
| 20260505071731 | 21 | 197 | 17.7 | 33.8 | 0.00 | 0.00 | 0.00 | 85 | 1005.5 |
| 20260505070731 | 21 | 197 | 17.7 | 33.8 | 0.00 | 0.00 | 0.00 | 85 | 1005.5 |
| 20260505065732 | 21 | 208 | 16.1 | 33.8 | 0.00 | 0.00 | 0.00 | 82 | 1005.8 |
| 20260505064731 | 21 | 208 | 16.1 | 33.8 | 0.00 | 0.00 | 0.00 | 82 | 1005.8 |
| 20260505063731 | 21 | 208 | 16.1 | 33.8 | 0.00 | 0.00 | 0.00 | 82 | 1005.8 |
| 20260505061732 | 21 | 208 | 16.1 | 33.8 | 0.00 | 0.00 | 0.00 | 82 | 1005.8 |
| 20260505055733 | 22 | 177 | 12.9 | 30.6 | 0.00 | 0.00 | 0.00 | 80 | 1006.3 |
| 20260505053732 | 22 | 177 | 12.9 | 30.6 | 0.00 | 0.00 | 0.00 | 80 | 1006.3 |
| 20260505051732 | 22 | 177 | 12.9 | 30.6 | 0.00 | 0.00 | 0.00 | 80 | 1006.3 |
| 20260505050733 | 22 | 177 | 12.9 | 30.6 | 0.00 | 0.00 | 0.00 | 80 | 1006.3 |
| 20260505041732 | 22 | 199 | 12.9 | 25.7 | 0.00 | 0.00 | 0.00 | 78 | 1006.4 |
| 20260505040732 | 22 | 199 | 12.9 | 25.7 | 0.00 | 0.00 | 0.00 | 78 | 1006.4 |
| 20260505035733 | 22 | 173 | 9.7 | 24.1 | 0.00 | 0.00 | 0.00 | 77 | 1006.5 |
| 20260505034732 | 22 | 173 | 9.7 | 24.1 | 0.00 | 0.00 | 0.00 | 77 | 1006.5 |
| 20260505033732 | 22 | 173 | 9.7 | 24.1 | 0.00 | 0.00 | 0.00 | 77 | 1006.5 |
| 20260505032732 | 22 | 173 | 9.7 | 24.1 | 0.00 | 0.00 | 0.00 | 77 | 1006.5 |
| 20260505030732 | 22 | 173 | 9.7 | 24.1 | 0.00 | 0.00 | 0.00 | 77 | 1006.5 |
| 20260505024732 | 22 | 200 | 12.9 | 20.9 | 0.00 | 0.00 | 0.00 | 74 | 1006.1 |
| 20260505022732 | 22 | 200 | 12.9 | 20.9 | 0.00 | 0.00 | 0.00 | 74 | 1006.1 |
| 20260505020732 | 22 | 200 | 12.9 | 20.9 | 0.00 | 0.00 | 0.00 | 74 | 1006.1 |
| 20260505015732 | 23 | 173 | 12.9 | 27.4 | 0.00 | 0.00 | 0.00 | 70 | 1006.2 |
| 20260505014732 | 23 | 173 | 12.9 | 27.4 | 0.00 | 0.00 | 0.00 | 70 | 1006.2 |
| 20260505012732 | 23 | 173 | 12.9 | 27.4 | 0.00 | 0.00 | 0.00 | 70 | 1006.2 |
| 20260505011731 | 23 | 173 | 12.9 | 27.4 | 0.00 | 0.00 | 0.00 | 70 | 1006.2 |
| 20260505010732 | 23 | 173 | 12.9 | 27.4 | 0.00 | 0.00 | 0.00 | 70 | 1006.2 |
| 20260505005732 | 25 | 195 | 19.3 | 43.5 | 0.00 | 0.00 | 0.00 | 66 | 1006.7 |
| 20260505004732 | 25 | 195 | 19.3 | 43.5 | 0.00 | 0.00 | 0.00 | 66 | 1006.7 |
| 20260505003732 | 25 | 195 | 19.3 | 43.5 | 0.00 | 0.00 | 0.00 | 66 | 1006.7 |
| 20260505001731 | 25 | 195 | 19.3 | 43.5 | 0.00 | 0.00 | 0.00 | 66 | 1006.7 |
| 20260504235731 | 25 | 199 | 19.3 | 33.8 | 0.00 | 0.00 | 0.00 | 62 | 1007.0 |
| 20260504234732 | 25 | 199 | 19.3 | 33.8 | 0.00 | 0.00 | 0.00 | 62 | 1007.0 |
| 20260504233731 | 25 | 199 | 19.3 | 33.8 | 0.00 | 0.00 | 0.00 | 62 | 1007.0 |
| 20260504232732 | 25 | 199 | 19.3 | 33.8 | 0.00 | 0.00 | 0.00 | 62 | 1007.0 |
| 20260504231731 | 25 | 199 | 19.3 | 33.8 | 0.00 | 0.00 | 0.00 | 62 | 1007.0 |
| 20260504224732 | 26 | 158 | 20.9 | 40.2 | 0.00 | 0.00 | 0.00 | 61 | 1007.4 |
| 20260504223731 | 26 | 158 | 20.9 | 40.2 | 0.00 | 0.00 | 0.00 | 61 | 1007.4 |
| 20260504222731 | 26 | 158 | 20.9 | 40.2 | 0.00 | 0.00 | 0.00 | 61 | 1007.4 |
| 20260504221731 | 26 | 158 | 20.9 | 40.2 | 0.00 | 0.00 | 0.00 | 61 | 1007.4 |
| 20260504220731 | 26 | 158 | 20.9 | 40.2 | 0.00 | 0.00 | 0.00 | 61 | 1007.4 |
| 20260504214731 | 26 | 178 | 24.1 | 45.1 | 0.00 | 0.00 | 0.00 | 59 | 1008.1 |
| 20260504213732 | 26 | 178 | 24.1 | 45.1 | 0.00 | 0.00 | 0.00 | 59 | 1008.1 |
| 20260504212731 | 26 | 178 | 24.1 | 45.1 | 0.00 | 0.00 | 0.00 | 59 | 1008.1 |
| 20260504211731 | 26 | 178 | 24.1 | 45.1 | 0.00 | 0.00 | 0.00 | 59 | 1008.1 |
| 20260504210731 | 26 | 178 | 24.1 | 45.1 | 0.00 | 0.00 | 0.00 | 59 | 1008.1 |
| 20260504205732 | 26 | 162 | 16.1 | 40.2 | 0.00 | 0.00 | 0.00 | 61 | 1009.4 |
| 20260504202732 | 26 | 162 | 16.1 | 40.2 | 0.00 | 0.00 | 0.00 | 61 | 1009.4 |
| 20260504201732 | 26 | 162 | 16.1 | 40.2 | 0.00 | 0.00 | 0.00 | 61 | 1009.4 |
| 20260504200731 | 26 | 162 | 16.1 | 40.2 | 0.00 | 0.00 | 0.00 | 61 | 1009.4 |
| 20260504195731 | 26 | 183 | 12.9 | 37.0 | 0.00 | 0.00 | 0.00 | 58 | 1010.3 |
| 20260504194731 | 26 | 183 | 12.9 | 37.0 | 0.00 | 0.00 | 0.00 | 58 | 1010.3 |